SCP
0 0 0 0 0 0 0 0 0 0 0 0 0 0 0 1 0 0 1 1 0 0 0 0 0 0 0 0 0 0 0 0 0 0 0 0 0 -0 0 -0 0 -0 -0
0 0 0 0 0 0 0 0 0 0 0 0 0 0 0 1 0 1 0 1 1 0 0 0 0 0 0 0 0 0 0 0 0 0 0 0 0 0 0 0 -0 -0 -0
0 0 0 0 0 0 0 0 0 0 0 0 1 0 0 0 1 1 1 1 1 0 0 0 0 0 0 0 0 0 0 0 0 0 0 0 0 0 -0 -0 -0 -0 -0
0 1 0 0 0 0 0 0 0 0 0 1 1 0 1 1 1 1 1 0 0 0 0 0 0 0 0 0 0 0 0 0 0 0 0 0 0 0 -0 -0 -0 -0 0
1 1 2 1 0 0 0 0 0 0 0 0 1 0 1 1 1 1 0 0 0 0 0 0 0 0 0 0 0 0 0 0 0 0 0 0 0 0 -0 -0 0 -0 0
3 2 2 2 2 1 1 1 0 0 0 1 1 0 1 1 1 0 0 0 0 0 0 0 0 0 0 0 0 0 0 0 0 0 0 0 0 -0 0 -0 0 -0 0
5 5 4 2 2 1 1 1 1 0 1 0 0 1 1 0 0 0 0 0 0 0 0 0 0 0 0 0 0 0 0 0 0 0 0 0 0 0 0 0 -0 0 0
7 5 3 3 2 1 1 1 1 1 1 0 0 1 1 0 0 0 0 0 0 0 0 0 0 0 0 0 0 0 0 0 0 0 0 0 0 -0 0 0 0 0 -0
6 5 3 2 1 1 1 1 1 0 0 0 1 1 0 0 0 0 0 0 0 0 0 0 0 0 0 0 0 0 0 -0 0 -0 0 0 0 0 0 0 -0 -0 -0
5 3 2 1 1 1 1 1 1 0 1 0 1 0 0 0 0 0 0 0 0 0 0 0 0 0 0 0 0 0 0 -0 0 -0 0 0 0 0 -0 -0 -0 -0 -0
4 3 2 1 1 1 1 1 1 0 0 1 0 0 0 0 0 0 0 0 0 0 0 0 0 0 0 0 0 0 0 0 -0 -0 0 0 -0 -0 -0 -0 -0 -0 -0
3 2 1 1 1 1 1 0 1 1 1 0 0 0 0 0 0 0 0 0 0 0 0 0 0 0 0 0 0 0 0 0 0 -0 0 0 -0 -0 -0 -0 -0 -0 -0
3 2 1 1 1 1 1 1 1 1 0 0 0 0 0 0 0 0 0 0 0 0 0 0 0 0 0 0 0 0 0 0 0 0 0 -0 -0 -0 -0 -0 -0 -0 -0
2 1 1 1 1 1 1 1 1 1 1 0 0 0 0 0 0 0 0 0 0 0 0 0 0 0 0 0 -0 0 0 0 0 0 0 0 -0 0 -0 -0 -0 0 0
2 1 1 1 1 1 1 1 1 1 0 0 0 0 0 0 0 0 0 0 0 0 0 0 0 0 0 0 0 0 0 0 0 0 0 -0 0 0 0 0 -0 0 0
1 1 1 0 0 0 1 0 0 0 0 0 0 0 0 0 0 0 0 0 0 0 0 0 0 0 0 0 -0 0 0 0 0 0 0 0 -0 0 0 0 0 0 0
1 1 0 0 0 0 0 0 0 0 0 0 0 0 0 0 0 0 0 0 0 0 0 0 0 0 0 0 0 0 0 0 0 0 0 0 -0 -0 0 0 0 0 0
0 0 0 0 0 0 0 0 0 0 0 0 0 0 0 0 0 0 0 0 0 0 0 0 0 0 0 0 0 0 0 0 0 0 0 -0 -0 -0 0 0 0 0 0
0 0 0 0 0 0 0 0 0 0 0 0 0 0 0 0 0 0 0 0 0 0 0 0 0 0 0 0 0 0 0 0 0 0 0 0 0 -0 0 0 0 0 0
0 0 0 0 0 0 0 0 0 0 0 0 0 0 0 0 0 0 0 0 0 0 0 0 0 0 0 0 0 0 0 0 0 0 0 0 0 0 0 -0 0 0 0
0 0 0 0 0 0 0 0 0 0 0 0 0 0 0 0 0 0 0 0 0 0 0 0 0 0 0 0 0 0 0 0 0 0 0 0 0 0 0 0 0 0 0
0 0 0 0 0 0 0 0 0 0 0 0 0 0 0 0 -0 0 0 0 0 0 0 0 0 0 0 0 0 0 0 0 0 0 0 0 0 0 0 0 0 0 0
0 0 0 0 0 0 0 0 0 0 0 0 0 0 0 0 -0 0 0 0 0 0 0 0 0 0 0 0 0 0 0 0 0 0 0 0 0 0 0 0 0 0 0
0 0 0 0 0 0 0 0 0 0 0 0 0 0 0 0 0 -0 0 0 0 0 0 0 0 0 0 0 0 0 0 0 0 0 0 0 0 0 0 0 0 0 0
0 0 0 0 0 0 0 0 0 0 0 0 0 0 0 0 0 0 0 0 0 0 0 0 0 0 0 0 0 0 0 0 0 0 0 0 0 0 0 0 0 0 -0
0 0 0 0 0 0 0 0 0 0 0 0 0 0 -0 0 0 -0 0 0 0 0 0 0 0 0 0 0 0 0 0 0 0 0 0 0 0 0 0 0 0 0 0
Wind_Speed_500mb
48 46 51 53 54 56 53 46 45 53 61 53 42 32 37 27 21 33 38 35 33 32 30 27 26 22 32 35 35 34 30 27 27 29 43 44 39 49 36 34 26 22 25
49 46 46 44 49 52 51 42 40 40 42 44 38 27 36 30 35 40 44 35 37 37 36 27 28 24 26 36 38 37 35 31 28 32 35 48 45 40 42 30 24 26 23
56 54 54 45 43 49 50 47 42 37 36 38 40 35 31 35 43 41 41 39 40 41 37 27 32 25 24 34 41 40 39 36 33 33 38 42 49 42 43 28 29 28 21
60 59 64 57 45 45 53 56 43 41 39 42 45 40 35 41 42 49 52 44 47 47 45 40 35 30 27 28 40 43 41 40 36 32 37 38 48 46 42 33 35 23 18
68 67 71 61 50 46 55 54 55 46 44 44 51 41 41 45 45 46 47 48 49 45 47 41 31 28 25 27 33 43 43 41 40 35 35 40 45 49 39 35 40 28 16
65 67 68 59 52 51 52 58 57 58 53 40 44 41 44 48 47 52 51 49 45 42 43 38 33 36 33 26 29 39 43 43 41 39 38 41 41 50 37 34 33 25 22
63 66 66 57 53 54 55 51 53 57 54 54 43 42 43 48 50 53 35 36 43 38 44 38 38 37 30 28 30 34 41 42 43 41 38 42 42 44 39 37 31 27 28
60 64 64 56 52 53 59 52 55 52 51 50 48 46 43 46 45 35 32 33 37 44 46 41 41 35 34 40 29 37 41 44 44 44 38 42 42 39 40 38 35 32 30
57 63 60 52 49 51 52 55 52 53 53 51 43 37 15 15 9 18 22 26 29 30 26 34 40 40 38 36 35 35 40 45 44 43 39 44 48 44 42 39 36 32 25
59 59 55 49 47 43 42 49 45 52 48 48 39 47 44 22 14 9 11 13 21 24 22 26 33 34 34 31 38 35 41 47 45 45 41 48 52 49 42 39 34 28 31
61 54 52 47 47 37 41 41 45 39 48 45 41 37 31 25 28 29 27 17 16 17 22 24 26 29 30 30 29 39 47 45 46 46 44 53 54 48 42 38 35 33 34
56 50 45 40 49 34 36 43 38 29 36 47 36 34 31 28 25 23 21 19 16 13 19 21 23 23 23 26 42 43 44 47 45 46 46 57 53 48 42 38 38 47 55
55 45 40 38 45 37 43 31 36 32 36 35 36 34 31 31 24 21 20 15 12 14 17 18 20 18 20 17 45 37 38 43 41 45 48 52 51 45 42 42 46 51 54
54 47 41 39 43 39 44 37 33 32 33 33 33 31 30 28 27 22 20 18 16 14 17 12 25 22 21 38 42 37 31 35 40 42 46 53 46 45 41 46 45 48 40
46 47 38 46 43 41 41 37 32 32 33 31 25 28 27 29 30 21 21 20 23 19 18 17 16 24 28 31 36 32 29 35 39 46 49 49 44 42 44 48 48 42 41
32 39 45 48 43 43 37 31 27 29 27 22 17 23 23 28 28 20 24 23 24 21 17 21 18 31 31 33 38 31 32 36 41 46 49 49 46 40 41 49 43 44 35
34 43 47 44 44 41 36 30 27 23 20 14 24 23 20 21 19 18 20 22 22 27 21 26 26 33 32 36 38 34 38 41 42 43 44 45 46 39 52 49 43 42 33
40 43 48 45 40 36 30 27 25 21 23 18 19 26 23 20 18 18 19 21 22 28 30 36 36 36 35 38 37 34 38 41 46 46 45 46 41 42 52 50 46 40 32
47 46 41 31 29 33 27 19 20 21 26 26 24 21 22 25 22 25 22 27 23 26 29 39 47 43 36 35 33 34 43 42 43 39 45 44 47 50 50 45 43 39 30
45 38 30 26 27 27 24 15 25 24 24 25 27 22 23 22 22 22 24 32 28 33 34 37 44 45 41 38 36 40 45 45 49 43 50 48 48 49 47 46 42 36 32
44 38 37 31 30 30 27 21 25 28 30 26 25 22 23 21 24 23 27 30 36 36 38 43 41 45 45 43 41 49 55 56 54 56 52 53 54 51 46 45 39 35 33
41 35 36 33 32 29 25 24 27 27 24 23 23 23 21 20 26 26 26 31 36 37 41 42 44 51 50 48 48 52 56 61 60 44 50 59 51 50 53 42 36 34 33
39 36 37 30 28 28 25 25 25 25 20 15 12 19 18 16 26 24 28 29 27 24 22 28 47 54 56 52 53 55 54 64 65 62 45 54 53 51 47 40 38 37 34
34 40 33 33 29 25 23 22 23 23 18 19 14 12 17 19 25 25 25 27 30 29 25 24 34 47 45 44 44 52 62 58 50 54 67 57 53 48 49 45 40 38 34
33 35 32 29 26 21 19 21 21 18 16 17 15 16 20 21 27 29 32 37 32 24 24 19 26 33 41 41 47 52 55 58 60 64 59 51 58 53 49 43 40 38 36
34 33 30 24 21 18 22 22 19 15 14 17 16 18 22 22 32 38 38 36 33 31 30 35 38 36 35 37 37 41 51 57 60 56 56 43 55 52 37 40 35 36 37
Wind_Direction_500mb
259 260 258 260 266 263 258 254 261 260 258 256 258 256 243 226 227 242 266 263 275 279 288 294 306 272 229 221 221 218 217 218 214 210 205 202 208 205 220 207 220 213 206
274 272 270 259 264 263 262 260 259 270 264 254 248 254 235 236 242 252 262 259 268 269 273 283 298 278 241 224 221 222 219 215 217 212 211 213 215 215 208 209 213 213 210
277 280 277 262 263 263 257 261 256 255 257 253 249 246 232 245 246 258 250 262 259 262 268 273 284 270 251 230 222 220 222 218 217 216 214 215 213 207 206 206 209 223 223
271 274 274 267 264 258 248 248 254 250 252 251 248 243 253 256 256 257 253 264 257 259 265 267 275 271 260 238 222 220 221 221 218 221 219 214 211 211 211 210 203 211 219
256 263 266 264 260 255 241 242 246 252 252 246 241 240 247 249 264 255 263 266 256 257 265 258 259 264 261 241 219 221 220 221 220 222 222 215 215 210 215 222 220 216 221
254 260 260 255 253 257 241 237 241 238 247 247 236 247 247 257 261 265 277 261 255 254 257 245 253 243 263 239 221 217 219 218 216 216 218 213 211 208 213 220 214 216 209
252 259 257 250 251 251 240 238 238 238 240 243 242 246 254 261 267 267 267 261 258 256 245 253 256 248 247 240 228 219 218 214 215 216 216 209 205 203 211 206 208 206 204
251 251 249 250 253 250 234 234 234 236 238 239 242 245 251 263 264 254 263 266 265 260 259 259 248 245 249 231 223 217 213 210 212 214 214 205 200 192 201 199 206 204 203
248 251 251 250 255 244 232 231 236 234 238 235 232 229 221 229 242 247 258 262 265 268 262 237 241 241 237 220 218 213 214 208 210 210 211 200 188 190 200 200 203 204 202
246 247 250 253 250 225 229 232 233 233 235 240 234 233 236 252 252 253 261 271 280 277 252 235 235 235 228 238 225 209 214 205 206 210 208 196 190 193 195 199 204 204 180
245 245 247 249 223 220 228 229 228 238 235 231 229 224 227 240 253 258 266 275 289 269 240 233 232 222 237 228 229 207 205 204 204 211 205 196 193 191 191 194 198 179 178
235 242 248 228 204 219 232 218 224 232 220 210 223 230 231 230 252 253 247 256 277 259 233 234 231 221 224 239 209 207 203 202 209 209 202 196 191 190 188 196 182 163 173
231 243 222 222 197 213 212 213 215 209 214 219 228 233 231 231 243 241 243 238 245 231 223 232 215 228 231 204 194 184 192 199 204 205 194 189 188 183 183 182 164 167 176
243 236 223 193 201 208 207 207 214 224 221 231 236 232 224 229 237 234 247 251 216 208 220 227 205 210 203 159 164 176 182 188 190 184 183 185 184 186 179 170 163 173 180
235 232 216 190 199 204 209 205 216 223 234 231 233 230 232 230 230 235 243 240 218 195 200 206 188 191 198 167 164 175 183 185 183 182 182 185 179 189 167 169 169 173 168
222 200 185 188 193 198 202 216 226 228 223 214 240 226 230 225 236 246 239 228 214 213 198 197 189 179 173 173 167 170 184 185 183 181 179 183 182 188 177 170 172 169 167
187 182 186 187 188 194 209 222 228 203 204 232 235 229 224 222 238 244 226 228 216 209 198 177 172 165 171 181 172 172 180 184 179 180 177 179 189 182 170 175 175 166 168
176 180 182 185 196 205 224 214 205 207 209 234 247 241 227 228 230 226 220 213 208 203 208 179 168 164 172 174 176 179 176 178 180 177 181 185 187 186 177 180 172 173 176
172 178 183 188 218 212 191 207 222 205 209 238 244 234 235 232 236 223 213 202 195 189 194 185 174 171 165 176 178 179 176 175 169 169 174 168 176 178 176 174 177 179 182
167 172 179 190 193 182 190 206 187 215 235 242 252 243 233 227 241 223 210 190 195 195 190 193 183 173 168 175 176 173 167 163 164 168 170 169 172 178 175 178 179 186 185
166 176 178 186 190 193 199 207 208 228 240 254 240 228 229 239 239 219 204 187 196 194 193 192 188 180 177 172 176 170 165 164 168 172 174 176 180 176 180 181 185 189 191
179 187 183 189 182 194 213 217 224 236 237 237 234 230 238 252 223 209 194 192 202 202 198 199 193 179 181 182 173 175 171 165 168 173 178 175 181 177 181 188 193 196 195
168 176 182 187 198 209 204 225 229 238 243 228 234 232 247 204 188 184 181 192 199 203 225 228 190 185 182 179 179 176 177 174 179 174 185 180 177 181 187 196 200 203 207
173 178 190 194 205 211 223 235 227 226 224 223 241 221 176 182 183 183 183 180 175 183 204 210 199 187 182 175 188 181 180 180 184 182 177 174 185 190 197 199 209 211 216
181 181 193 192 202 220 234 212 203 192 219 218 206 185 181 181 175 181 179 168 161 162 133 155 174 174 175 181 187 182 187 180 178 185 187 183 185 193 198 210 218 219 216
186 186 190 193 208 214 188 183 179 184 204 200 196 192 191 184 172 179 178 178 170 152 150 153 157 166 177 183 182 187 182 186 185 180 193 190 194 197 207 215 217 221 216
Wind_Speed_850mb
48 46 51 53 54 56 53 46 45 53 61 53 42 32 37 27 21 33 38 35 33 32 30 27 26 22 32 35 35 34 30 27 27 29 43 44 39 49 36 34 26 22 25
49 46 46 44 49 52 51 42 40 40 42 44 38 27 36 30 35 40 44 35 37 37 36 27 28 24 26 36 38 37 35 31 28 32 35 48 45 40 42 30 24 26 23
56 54 54 45 43 49 50 47 42 37 36 38 40 35 31 35 43 41 41 39 40 41 37 27 32 25 24 34 41 40 39 36 33 33 38 42 49 42 43 28 29 28 21
60 59 64 57 45 45 53 56 43 41 39 42 45 40 35 41 42 49 52 44 47 47 45 40 35 30 27 28 40 43 41 40 36 32 37 38 48 46 42 33 35 23 18
68 67 71 61 50 46 55 54 55 46 44 44 51 41 41 45 45 46 47 48 49 45 47 41 31 28 25 27 33 43 43 41 40 35 35 40 45 49 39 35 40 28 16
65 67 68 59 52 51 52 58 57 58 53 40 44 41 44 48 47 52 51 49 45 42 43 38 33 36 33 26 29 39 43 43 41 39 38 41 41 50 37 34 33 25 22
63 66 66 57 53 54 55 51 53 57 54 54 43 42 43 48 50 53 35 36 43 38 44 38 38 37 30 28 30 34 41 42 43 41 38 42 42 44 39 37 31 27 28
60 64 64 56 52 53 59 52 55 52 51 50 48 46 43 46 45 35 32 33 37 44 46 41 41 35 34 40 29 37 41 44 44 44 38 42 42 39 40 38 35 32 30
57 63 60 52 49 51 52 55 52 53 53 51 43 37 15 15 9 18 22 26 29 30 26 34 40 40 38 36 35 35 40 45 44 43 39 44 48 44 42 39 36 32 25
59 59 55 49 47 43 42 49 45 52 48 48 39 47 44 22 14 9 11 13 21 24 22 26 33 34 34 31 38 35 41 47 45 45 41 48 52 49 42 39 34 28 31
61 54 52 47 47 37 41 41 45 39 48 45 41 37 31 25 28 29 27 17 16 17 22 24 26 29 30 30 29 39 47 45 46 46 44 53 54 48 42 38 35 33 34
56 50 45 40 49 34 36 43 38 29 36 47 36 34 31 28 25 23 21 19 16 13 19 21 23 23 23 26 42 43 44 47 45 46 46 57 53 48 42 38 38 47 55
55 45 40 38 45 37 43 31 36 32 36 35 36 34 31 31 24 21 20 15 12 14 17 18 20 18 20 17 45 37 38 43 41 45 48 52 51 45 42 42 46 51 54
54 47 41 39 43 39 44 37 33 32 33 33 33 31 30 28 27 22 20 18 16 14 17 12 25 22 21 38 42 37 31 35 40 42 46 53 46 45 41 46 45 48 40
46 47 38 46 43 41 41 37 32 32 33 31 25 28 27 29 30 21 21 20 23 19 18 17 16 24 28 31 36 32 29 35 39 46 49 49 44 42 44 48 48 42 41
32 39 45 48 43 43 37 31 27 29 27 22 17 23 23 28 28 20 24 23 24 21 17 21 18 31 31 33 38 31 32 36 41 46 49 49 46 40 41 49 43 44 35
34 43 47 44 44 41 36 30 27 23 20 14 24 23 20 21 19 18 20 22 22 27 21 26 26 33 32 36 38 34 38 41 42 43 44 45 46 39 52 49 43 42 33
40 43 48 45 40 36 30 27 25 21 23 18 19 26 23 20 18 18 19 21 22 28 30 36 36 36 35 38 37 34 38 41 46 46 45 46 41 42 52 50 46 40 32
47 46 41 31 29 33 27 19 20 21 26 26 24 21 22 25 22 25 22 27 23 26 29 39 47 43 36 35 33 34 43 42 43 39 45 44 47 50 50 45 43 39 30
45 38 30 26 27 27 24 15 25 24 24 25 27 22 23 22 22 22 24 32 28 33 34 37 44 45 41 38 36 40 45 45 49 43 50 48 48 49 47 46 42 36 32
44 38 37 31 30 30 27 21 25 28 30 26 25 22 23 21 24 23 27 30 36 36 38 43 41 45 45 43 41 49 55 56 54 56 52 53 54 51 46 45 39 35 33
41 35 36 33 32 29 25 24 27 27 24 23 23 23 21 20 26 26 26 31 36 37 41 42 44 51 50 48 48 52 56 61 60 44 50 59 51 50 53 42 36 34 33
39 36 37 30 28 28 25 25 25 25 20 15 12 19 18 16 26 24 28 29 27 24 22 28 47 54 56 52 53 55 54 64 65 62 45 54 53 51 47 40 38 37 34
34 40 33 33 29 25 23 22 23 23 18 19 14 12 17 19 25 25 25 27 30 29 25 24 34 47 45 44 44 52 62 58 50 54 67 57 53 48 49 45 40 38 34
33 35 32 29 26 21 19 21 21 18 16 17 15 16 20 21 27 29 32 37 32 24 24 19 26 33 41 41 47 52 55 58 60 64 59 51 58 53 49 43 40 38 36
34 33 30 24 21 18 22 22 19 15 14 17 16 18 22 22 32 38 38 36 33 31 30 35 38 36 35 37 37 41 51 57 60 56 56 43 55 52 37 40 35 36 37
Wind_Direction_850mb
259 260 258 260 266 263 258 254 261 260 258 256 258 256 243 226 227 242 266 263 275 279 288 294 306 272 229 221 221 218 217 218 214 210 205 202 208 205 220 207 220 213 206
274 272 270 259 264 263 262 260 259 270 264 254 248 254 235 236 242 252 262 259 268 269 273 283 298 278 241 224 221 222 219 215 217 212 211 213 215 215 208 209 213 213 210
277 280 277 262 263 263 257 261 256 255 257 253 249 246 232 245 246 258 250 262 259 262 268 273 284 270 251 230 222 220 222 218 217 216 214 215 213 207 206 206 209 223 223
271 274 274 267 264 258 248 248 254 250 252 251 248 243 253 256 256 257 253 264 257 259 265 267 275 271 260 238 222 220 221 221 218 221 219 214 211 211 211 210 203 211 219
256 263 266 264 260 255 241 242 246 252 252 246 241 240 247 249 264 255 263 266 256 257 265 258 259 264 261 241 219 221 220 221 220 222 222 215 215 210 215 222 220 216 221
254 260 260 255 253 257 241 237 241 238 247 247 236 247 247 257 261 265 277 261 255 254 257 245 253 243 263 239 221 217 219 218 216 216 218 213 211 208 213 220 214 216 209
252 259 257 250 251 251 240 238 238 238 240 243 242 246 254 261 267 267 267 261 258 256 245 253 256 248 247 240 228 219 218 214 215 216 216 209 205 203 211 206 208 206 204
251 251 249 250 253 250 234 234 234 236 238 239 242 245 251 263 264 254 263 266 265 260 259 259 248 245 249 231 223 217 213 210 212 214 214 205 200 192 201 199 206 204 203
248 251 251 250 255 244 232 231 236 234 238 235 232 229 221 229 242 247 258 262 265 268 262 237 241 241 237 220 218 213 214 208 210 210 211 200 188 190 200 200 203 204 202
246 247 250 253 250 225 229 232 233 233 235 240 234 233 236 252 252 253 261 271 280 277 252 235 235 235 228 238 225 209 214 205 206 210 208 196 190 193 195 199 204 204 180
245 245 247 249 223 220 228 229 228 238 235 231 229 224 227 240 253 258 266 275 289 269 240 233 232 222 237 228 229 207 205 204 204 211 205 196 193 191 191 194 198 179 178
235 242 248 228 204 219 232 218 224 232 220 210 223 230 231 230 252 253 247 256 277 259 233 234 231 221 224 239 209 207 203 202 209 209 202 196 191 190 188 196 182 163 173
231 243 222 222 197 213 212 213 215 209 214 219 228 233 231 231 243 241 243 238 245 231 223 232 215 228 231 204 194 184 192 199 204 205 194 189 188 183 183 182 164 167 176
243 236 223 193 201 208 207 207 214 224 221 231 236 232 224 229 237 234 247 251 216 208 220 227 205 210 203 159 164 176 182 188 190 184 183 185 184 186 179 170 163 173 180
235 232 216 190 199 204 209 205 216 223 234 231 233 230 232 230 230 235 243 240 218 195 200 206 188 191 198 167 164 175 183 185 183 182 182 185 179 189 167 169 169 173 168
222 200 185 188 193 198 202 216 226 228 223 214 240 226 230 225 236 246 239 228 214 213 198 197 189 179 173 173 167 170 184 185 183 181 179 183 182 188 177 170 172 169 167
187 182 186 187 188 194 209 222 228 203 204 232 235 229 224 222 238 244 226 228 216 209 198 177 172 165 171 181 172 172 180 184 179 180 177 179 189 182 170 175 175 166 168
176 180 182 185 196 205 224 214 205 207 209 234 247 241 227 228 230 226 220 213 208 203 208 179 168 164 172 174 176 179 176 178 180 177 181 185 187 186 177 180 172 173 176
172 178 183 188 218 212 191 207 222 205 209 238 244 234 235 232 236 223 213 202 195 189 194 185 174 171 165 176 178 179 176 175 169 169 174 168 176 178 176 174 177 179 182
167 172 179 190 193 182 190 206 187 215 235 242 252 243 233 227 241 223 210 190 195 195 190 193 183 173 168 175 176 173 167 163 164 168 170 169 172 178 175 178 179 186 185
166 176 178 186 190 193 199 207 208 228 240 254 240 228 229 239 239 219 204 187 196 194 193 192 188 180 177 172 176 170 165 164 168 172 174 176 180 176 180 181 185 189 191
179 187 183 189 182 194 213 217 224 236 237 237 234 230 238 252 223 209 194 192 202 202 198 199 193 179 181 182 173 175 171 165 168 173 178 175 181 177 181 188 193 196 195
168 176 182 187 198 209 204 225 229 238 243 228 234 232 247 204 188 184 181 192 199 203 225 228 190 185 182 179 179 176 177 174 179 174 185 180 177 181 187 196 200 203 207
173 178 190 194 205 211 223 235 227 226 224 223 241 221 176 182 183 183 183 180 175 183 204 210 199 187 182 175 188 181 180 180 184 182 177 174 185 190 197 199 209 211 216
181 181 193 192 202 220 234 212 203 192 219 218 206 185 181 181 175 181 179 168 161 162 133 155 174 174 175 181 187 182 187 180 178 185 187 183 185 193 198 210 218 219 216
186 186 190 193 208 214 188 183 179 184 204 200 196 192 191 184 172 179 178 178 170 152 150 153 157 166 177 183 182 187 182 186 185 180 193 190 194 197 207 215 217 221 216